• In Deutschland
  • Länderverzeichnis
  • Für 7 Tage
  • Wassertemperatur
  • Satellitenkarten
  • Wetterkarte
  • Widgets
  • user-avatar
    Anmelden

    Stündliche Wetter Augustusburg

    Heute, 19 Juni, Dienstag

    Zeit Temperatur Niederschläge Wind Luftdruck Luftfeuchtigkeit
    00:00 +14°C° 0 mm 2 m/S 727 mmHg 90%
    01:00 +14°C° 0 mm 2 m/S 727 mmHg 91%
    02:00 +14°C° 0 mm 2 m/S 727 mmHg 90%
    03:00 +14°C° 0 mm 2 m/S 727 mmHg 90%
    04:00 +13°C° 0 mm 2 m/S 727 mmHg 90%
    05:00 +14°C° 0 mm 3 m/S 727 mmHg 87%
    06:00 +16°C° 0 mm 3 m/S 727 mmHg 85%
    07:00 +17°C° 0 mm 3 m/S 728 mmHg 82%
    08:00 +18°C° 0,1 mm 3 m/S 728 mmHg 78%
    09:00 +19°C° 0,1 mm 3 m/S 728 mmHg 75%
    10:00 +20°C° 0,1 mm 4 m/S 728 mmHg 71%
    11:00 +21°C° 0,1 mm 3 m/S 728 mmHg 71%
    12:00 +21°C° 0,1 mm 3 m/S 728 mmHg 71%
    13:00 +21°C° 0,1 mm 3 m/S 728 mmHg 71%
    14:00 +21°C° 0,1 mm 3 m/S 728 mmHg 70%
    15:00 +21°C° 0,1 mm 3 m/S 728 mmHg 69%
    16:00 +22°C° 0,1 mm 3 m/S 728 mmHg 68%
    17:00 +21°C° 0 mm 2 m/S 728 mmHg 71%
    18:00 +21°C° 0 mm 2 m/S 728 mmHg 75%
    19:00 +20°C° 0 mm 2 m/S 728 mmHg 78%
    20:00 +20°C° 0 mm 1 m/S 728 mmHg 82%
    21:00 +18°C° 0 mm 1 m/S 728 mmHg 87%
    22:00 +16°C° 0 mm 1 m/S 729 mmHg 91%
    23:00 +16°C° 0 mm 1 m/S 729 mmHg 92%

    Morgen, 20 Juni, Mittwoch

    Zeit Temperatur Niederschläge Wind Luftdruck Luftfeuchtigkeit
    00:00 +15°C° 0 mm 1 m/S 729 mmHg 93%
    01:00 +15°C° 0 mm 1 m/S 729 mmHg 93%
    02:00 +15°C° 0 mm 1 m/S 729 mmHg 94%
    03:00 +14°C° 0 mm 1 m/S 729 mmHg 94%
    04:00 +14°C° 0 mm 1 m/S 729 mmHg 95%
    05:00 +15°C° 0 mm 0 m/S 729 mmHg 91%
    06:00 +16°C° 0 mm 0 m/S 729 mmHg 87%
    07:00 +18°C° 0 mm 0 m/S 729 mmHg 83%
    08:00 +19°C° 0 mm 0 m/S 729 mmHg 78%
    09:00 +22°C° 0 mm 1 m/S 729 mmHg 74%
    10:00 +24°C° 0 mm 1 m/S 729 mmHg 69%
    11:00 +24°C° 0,1 mm 1 m/S 729 mmHg 66%
    12:00 +25°C° 0,1 mm 1 m/S 729 mmHg 63%
    13:00 +24°C° 0,1 mm 0 m/S 728 mmHg 60%
    14:00 +26°C° 0 mm 1 m/S 728 mmHg 60%
    15:00 +26°C° 0 mm 1 m/S 728 mmHg 59%
    16:00 +26°C° 0 mm 1 m/S 727 mmHg 58%
    17:00 +26°C° 0,1 mm 1 m/S 727 mmHg 63%
    18:00 +25°C° 0,1 mm 1 m/S 727 mmHg 68%
    19:00 +24°C° 0,1 mm 1 m/S 726 mmHg 73%
    20:00 +23°C° 0 mm 1 m/S 726 mmHg 77%
    21:00 +19°C° 0 mm 0 m/S 726 mmHg 81%
    22:00 +17°C° 0 mm 0 m/S 726 mmHg 85%
    23:00 +19°C° 0 mm 1 m/S 726 mmHg 87%

    übermorgen, 21 Juni, Donnerstag

    Zeit Temperatur Niederschläge Wind Luftdruck Luftfeuchtigkeit
    00:00 +19°C° 0 mm 1 m/S 725 mmHg 88%
    01:00 +18°C° 0 mm 1 m/S 725 mmHg 89%
    02:00 +18°C° 0 mm 1 m/S 725 mmHg 90%
    03:00 +18°C° 0 mm 1 m/S 724 mmHg 91%
    04:00 +16°C° 0 mm 1 m/S 724 mmHg 91%
    05:00 +18°C° 0 mm 2 m/S 724 mmHg 88%
    06:00 +19°C° 0 mm 2 m/S 723 mmHg 84%
    07:00 +21°C° 0 mm 2 m/S 723 mmHg 80%
    08:00 +22°C° 0,2 mm 3 m/S 723 mmHg 73%
    09:00 +25°C° 0,2 mm 3 m/S 722 mmHg 66%
    10:00 +26°C° 0,2 mm 4 m/S 722 mmHg 59%
    11:00 +26°C° 0,5 mm 4 m/S 721 mmHg 60%
    12:00 +26°C° 0,5 mm 5 m/S 721 mmHg 61%
    13:00 +26°C° 0,5 mm 6 m/S 720 mmHg 63%
    14:00 +23°C° 0,5 mm 6 m/S 720 mmHg 68%
    15:00 +20°C° 0,5 mm 7 m/S 720 mmHg 73%
    16:00 +17°C° 0,5 mm 8 m/S 720 mmHg 78%
    17:00 +15°C° 0,1 mm 7 m/S 721 mmHg 80%
    18:00 +13°C° 0,1 mm 6 m/S 721 mmHg 81%
    19:00 +10°C° 0,1 mm 6 m/S 722 mmHg 83%
    20:00 +9°C° 0 mm 5 m/S 723 mmHg 81%
    21:00 +8°C° 0 mm 5 m/S 723 mmHg 79%
    22:00 +8°C° 0 mm 5 m/S 724 mmHg 77%
    23:00 +7°C° 0 mm 5 m/S 724 mmHg 78%

    22 Juni, Freitag

    Zeit Temperatur Niederschläge Wind Luftdruck Luftfeuchtigkeit
    00:00 +7°C° 0 mm 5 m/S 724 mmHg 80%
    01:00 +6°C° 0 mm 5 m/S 724 mmHg 81%
    02:00 +6°C° 0 mm 5 m/S 724 mmHg 82%
    03:00 +5°C° 0 mm 5 m/S 724 mmHg 84%
    04:00 +5°C° 0 mm 5 m/S 725 mmHg 86%
    05:00 +6°C° 0 mm 5 m/S 725 mmHg 82%
    06:00 +7°C° 0 mm 6 m/S 725 mmHg 79%
    07:00 +6°C° 0 mm 7 m/S 725 mmHg 76%
    08:00 +8°C° 0 mm 7 m/S 725 mmHg 73%
    09:00 +9°C° 0 mm 7 m/S 725 mmHg 71%
    10:00 +9°C° 0 mm 7 m/S 725 mmHg 68%
    11:00 +10°C° 0,1 mm 7 m/S 725 mmHg 67%
    12:00 +11°C° 0,1 mm 7 m/S 725 mmHg 67%
    13:00 +11°C° 0,1 mm 7 m/S 725 mmHg 66%
    14:00 +11°C° 0,3 mm 7 m/S 725 mmHg 72%
    15:00 +10°C° 0,3 mm 7 m/S 725 mmHg 77%
    16:00 +10°C° 0,3 mm 7 m/S 725 mmHg 83%
    17:00 +10°C° 0,2 mm 6 m/S 725 mmHg 84%
    18:00 +10°C° 0,2 mm 6 m/S 725 mmHg 84%
    19:00 +10°C° 0,2 mm 6 m/S 725 mmHg 85%
    20:00 +9°C° 0,1 mm 6 m/S 725 mmHg 87%
    21:00 +9°C° 0,1 mm 6 m/S 725 mmHg 88%
    22:00 +8°C° 0,1 mm 5 m/S 726 mmHg 90%
    23:00 +8°C° 0,1 mm 5 m/S 726 mmHg 91%

    23 Juni, Samstag

    Zeit Temperatur Niederschläge Wind Luftdruck Luftfeuchtigkeit
    00:00 +8°C° 0,1 mm 5 m/S 726 mmHg 91%
    01:00 +8°C° 0,1 mm 5 m/S 726 mmHg 91%
    02:00 +7°C° 0,1 mm 5 m/S 726 mmHg 91%
    03:00 +7°C° 0,1 mm 5 m/S 726 mmHg 91%
    04:00 +7°C° 0,1 mm 5 m/S 726 mmHg 90%
    05:00 +7°C° 0,1 mm 5 m/S 726 mmHg 89%
    06:00 +7°C° 0,1 mm 5 m/S 726 mmHg 88%
    07:00 +7°C° 0,1 mm 5 m/S 726 mmHg 87%
    08:00 +8°C° 0,1 mm 5 m/S 727 mmHg 84%
    09:00 +9°C° 0,1 mm 5 m/S 727 mmHg 80%
    10:00 +10°C° 0,1 mm 5 m/S 727 mmHg 77%
    11:00 +10°C° 0,1 mm 6 m/S 727 mmHg 74%
    12:00 +11°C° 0,1 mm 6 m/S 727 mmHg 71%
    13:00 +11°C° 0,1 mm 6 m/S 727 mmHg 68%
    14:00 +11°C° 0,1 mm 6 m/S 727 mmHg 68%
    15:00 +12°C° 0,1 mm 5 m/S 727 mmHg 68%
    16:00 +12°C° 0,1 mm 5 m/S 727 mmHg 69%
    17:00 +12°C° 0 mm 5 m/S 727 mmHg 71%
    18:00 +12°C° 0 mm 4 m/S 727 mmHg 74%
    19:00 +11°C° 0 mm 4 m/S 727 mmHg 76%
    20:00 +10°C° 0 mm 3 m/S 727 mmHg 80%
    21:00 +9°C° 0 mm 3 m/S 727 mmHg 84%
    22:00 +8°C° 0 mm 3 m/S 727 mmHg 89%
    23:00 +7°C° 0 mm 2 m/S 727 mmHg 90%

    24 Juni, Sonntag

    Zeit Temperatur Niederschläge Wind Luftdruck Luftfeuchtigkeit
    00:00 +7°C° 0 mm 2 m/S 727 mmHg 92%
    01:00 +6°C° 0 mm 2 m/S 727 mmHg 93%
    02:00 +6°C° 0 mm 2 m/S 727 mmHg 94%
    03:00 +5°C° 0 mm 2 m/S 727 mmHg 94%
    04:00 +5°C° 0 mm 2 m/S 727 mmHg 95%
    05:00 +6°C° 0 mm 2 m/S 727 mmHg 91%
    06:00 +8°C° 0 mm 2 m/S 727 mmHg 87%
    07:00 +9°C° 0 mm 2 m/S 728 mmHg 82%
    08:00 +12°C° 0 mm 2 m/S 728 mmHg 76%
    09:00 +13°C° 0 mm 2 m/S 728 mmHg 70%
    10:00 +14°C° 0 mm 2 m/S 728 mmHg 63%
    11:00 +15°C° 0,1 mm 2 m/S 728 mmHg 62%
    12:00 +15°C° 0,1 mm 2 m/S 728 mmHg 61%
    13:00 +16°C° 0,1 mm 2 m/S 728 mmHg 59%
    14:00 +16°C° 0 mm 2 m/S 728 mmHg 60%
    15:00 +16°C° 0 mm 2 m/S 727 mmHg 60%
    16:00 +16°C° 0 mm 2 m/S 727 mmHg 61%
    17:00 +15°C° 0 mm 2 m/S 727 mmHg 65%
    18:00 +15°C° 0 mm 2 m/S 727 mmHg 69%
    19:00 +14°C° 0 mm 1 m/S 727 mmHg 73%
    20:00 +13°C° 0 mm 1 m/S 727 mmHg 78%
    21:00 +11°C° 0 mm 1 m/S 727 mmHg 83%
    22:00 +9°C° 0 mm 0 m/S 728 mmHg 87%
    23:00 +8°C° 0 mm 0 m/S 728 mmHg 88%
    Mehr zeigen